User: anonymous   Login
Location: Unspecified
(0.0000°N, 0.0000°E)
Time: 19:59:22
(UTC+00:00)
Language:

COSMOS 2467 - Orbit

View from above orbital plane
View from above orbital plane
View from above satellite
View from above satellite

Ground track
Ground track

The orbit data is extracted from the following two-line orbital elements,

1 37152U 10043A   18171.64881499  .00000029  00000-0  14188-3 0  9999
2 37152  82.4576  90.5126 0002817  50.8355 309.2992 12.42878294352987
Epoch (UTC): 20 June 2018 15:34:17
Eccentricity: 0.0002817
inclination: 82.4576°
perigee height: 1492 km
apogee height: 1496 km
right ascension of ascending node: 90.5126°
argument of perigee: 50.8355°
revolutions per day: 12.42878294
mean anomaly at epoch: 309.2992°
orbit number at epoch: 35298

The dashed part of the orbit path shows where the satellite is in the earth's shadow,  

DLR